UAL1167 KEWR-MMUN

Flight info

Callsign UAL1167
Flight time 3h 25m
Altitude 40000
Route BIGGY Q75 ENEME DCT EVANZ DCT CIGAR M219 NAVVL L465 SHARQ UM463 WALKY UB879 NOSAT NOSAT1B
Aircraft B772/H-SDE2E3FGHIJ5LORVWXY/LB1D1

Departure

Time 2026-04-26 16:03
Airport Newark Liberty International Airport (KEWR)

Arrival

Time 2026-04-26 19:28
Airport Cancún International Airport (MMUN)
Time Latitude Longitude Altitude Speed Heading
2026-04-26 15:28 40.69924 -74.17877 19 ft 0 kts 183°
2026-04-26 15:48 40.69928 -74.17876 20 ft 2 kts 183°
2026-04-26 15:49 40.69942 -74.17876 20 ft 2 kts 183°
2026-04-26 15:49 40.69952 -74.17875 20 ft 0 kts 183°
2026-04-26 15:49 40.69965 -74.17875 20 ft 2 kts 167°
2026-04-26 15:49 40.69978 -74.17883 20 ft 2 kts 143°
2026-04-26 15:50 40.69989 -74.17896 20 ft 2 kts 122°
2026-04-26 15:50 40.69995 -74.17915 20 ft 2 kts 100°
2026-04-26 15:50 40.69996 -74.17923 20 ft 1 kts 94°
2026-04-26 15:50 40.69996 -74.17924 20 ft 0 kts 94°
2026-04-26 15:54 40.69994 -74.17900 20 ft 6 kts 94°
2026-04-26 15:54 40.69991 -74.17832 20 ft 9 kts 94°
2026-04-26 15:54 40.69985 -74.17746 20 ft 10 kts 96°
2026-04-26 15:54 40.69978 -74.17650 20 ft 11 kts 95°
2026-04-26 15:55 40.69971 -74.17545 20 ft 13 kts 95°
2026-04-26 15:55 40.69960 -74.17432 20 ft 13 kts 106°
2026-04-26 15:55 40.69919 -74.17325 20 ft 14 kts 127°
2026-04-26 15:55 40.69855 -74.17221 20 ft 15 kts 133°
2026-04-26 15:56 40.69776 -74.17128 20 ft 16 kts 146°
2026-04-26 15:56 40.69683 -74.17052 20 ft 17 kts 152°
2026-04-26 15:56 40.69572 -74.17002 20 ft 18 kts 165°
2026-04-26 15:56 40.69455 -74.16979 20 ft 18 kts 175°
2026-04-26 15:57 40.69333 -74.16991 20 ft 19 kts 193°
2026-04-26 15:57 40.69212 -74.17046 20 ft 20 kts 205°
2026-04-26 15:57 40.69095 -74.17120 20 ft 20 kts 205°
2026-04-26 15:57 40.69015 -74.17171 20 ft 21 kts 206°
2026-04-26 15:58 40.68850 -74.17276 20 ft 21 kts 206°
2026-04-26 15:58 40.68720 -74.17358 20 ft 22 kts 206°
2026-04-26 15:58 40.68590 -74.17440 20 ft 23 kts 206°
2026-04-26 15:58 40.68455 -74.17526 20 ft 23 kts 205°
2026-04-26 15:59 40.68315 -74.17614 20 ft 24 kts 206°
2026-04-26 15:59 40.68177 -74.17703 20 ft 24 kts 205°
2026-04-26 15:59 40.68032 -74.17793 20 ft 25 kts 205°
2026-04-26 15:59 40.67891 -74.17879 20 ft 20 kts 206°
2026-04-26 16:00 40.67816 -74.17928 20 ft 11 kts 206°
2026-04-26 16:00 40.67746 -74.17974 20 ft 13 kts 206°
2026-04-26 16:00 40.67680 -74.18018 20 ft 10 kts 206°
2026-04-26 16:00 40.67613 -74.18035 20 ft 11 kts 157°
2026-04-26 16:01 40.67590 -74.18007 20 ft 12 kts 126°
2026-04-26 16:01 40.67580 -74.17938 20 ft 6 kts 52°
2026-04-26 16:01 40.67620 -74.17899 20 ft 9 kts 28°
2026-04-26 16:01 40.67767 -74.17804 20 ft 54 kts 27°
2026-04-26 16:02 40.68253 -74.17492 20 ft 112 kts 25°
2026-04-26 16:02 40.69024 -74.17007 27 ft 155 kts 27°
2026-04-26 16:02 40.70025 -74.16369 294 ft 170 kts 27°
2026-04-26 16:02 40.70738 -74.15926 613 ft 180 kts 26°
2026-04-26 16:03 40.72133 -74.14897 1760 ft 165 kts 39°
2026-04-26 16:03 40.72867 -74.14041 2519 ft 130 kts 42°
2026-04-26 16:03 40.73481 -74.13293 2873 ft 110 kts 43°
2026-04-26 16:03 40.74021 -74.12631 2912 ft 113 kts 43°
2026-04-26 16:04 40.74626 -74.11891 2861 ft 122 kts 43°
2026-04-26 16:04 40.75213 -74.11175 3070 ft 112 kts 43°
2026-04-26 16:04 40.75766 -74.10550 3108 ft 115 kts 28°
2026-04-26 16:04 40.76636 -74.10541 3120 ft 146 kts 338°
2026-04-26 16:05 40.77341 -74.11610 3365 ft 174 kts 295°
2026-04-26 16:05 40.77597 -74.13153 3639 ft 193 kts 280°
2026-04-26 16:05 40.77684 -74.14932 3910 ft 212 kts 277°
2026-04-26 16:05 40.77779 -74.16904 4205 ft 236 kts 277°
2026-04-26 16:06 40.77893 -74.19044 4585 ft 255 kts 278°
2026-04-26 16:06 40.78020 -74.21295 5148 ft 268 kts 277°
2026-04-26 16:06 40.78161 -74.23663 5867 ft 274 kts 278°
2026-04-26 16:06 40.78308 -74.26077 6706 ft 276 kts 278°
2026-04-26 16:07 40.78462 -74.28522 7493 ft 280 kts 278°
2026-04-26 16:07 40.78448 -74.31022 8265 ft 288 kts 261°
2026-04-26 16:07 40.77695 -74.33342 8997 ft 296 kts 240°
2026-04-26 16:07 40.76591 -74.35428 9735 ft 300 kts 237°
2026-04-26 16:08 40.75471 -74.37456 10388 ft 307 kts 237°
2026-04-26 16:08 40.74692 -74.38863 10652 ft 318 kts 237°
2026-04-26 16:08 40.73029 -74.41865 11228 ft 338 kts 237°
2026-04-26 16:08 40.71742 -74.44186 11659 ft 352 kts 237°
2026-04-26 16:09 40.70382 -74.46636 12097 ft 366 kts 237°
2026-04-26 16:09 40.68982 -74.49155 12551 ft 379 kts 237°
2026-04-26 16:09 40.67518 -74.51787 13002 ft 392 kts 237°
2026-04-26 16:09 40.66045 -74.54429 13603 ft 399 kts 238°
2026-04-26 16:10 40.64528 -74.57145 14315 ft 403 kts 238°
2026-04-26 16:10 40.62997 -74.59885 15083 ft 405 kts 238°
2026-04-26 16:10 40.61476 -74.62604 15842 ft 406 kts 238°
2026-04-26 16:10 40.59901 -74.65417 16566 ft 409 kts 238°
2026-04-26 16:11 40.58306 -74.68263 17255 ft 412 kts 238°
2026-04-26 16:11 40.56728 -74.71078 17913 ft 415 kts 238°
2026-04-26 16:11 40.55114 -74.73953 18578 ft 418 kts 239°
2026-04-26 16:11 40.53464 -74.76889 19242 ft 420 kts 239°
2026-04-26 16:12 40.51830 -74.79794 19881 ft 423 kts 239°
2026-04-26 16:12 40.50160 -74.82759 20452 ft 427 kts 239°
2026-04-26 16:12 40.46856 -74.88620 21548 ft 433 kts 239°
2026-04-26 16:13 40.45187 -74.91573 22082 ft 436 kts 239°
2026-04-26 16:13 40.43502 -74.94553 22614 ft 439 kts 238°
2026-04-26 16:13 40.41734 -74.97546 23157 ft 445 kts 234°
2026-04-26 16:13 40.39794 -75.00346 23685 ft 449 kts 232°
2026-04-26 16:14 40.37812 -75.03132 24173 ft 452 kts 232°
2026-04-26 16:14 40.35835 -75.05904 24692 ft 454 kts 232°
2026-04-26 16:14 40.31769 -75.11600 25799 ft 456 kts 232°
2026-04-26 16:15 40.29748 -75.14429 26282 ft 458 kts 232°
2026-04-26 16:15 40.27678 -75.17324 26761 ft 461 kts 231°
2026-04-26 16:15 40.25641 -75.20171 27217 ft 464 kts 231°
2026-04-26 16:16 40.21433 -75.26044 28232 ft 466 kts 231°
2026-04-26 16:16 40.19329 -75.28975 28754 ft 467 kts 231°
2026-04-26 16:16 40.17226 -75.31904 29166 ft 471 kts 231°
2026-04-26 16:16 40.15055 -75.34924 29596 ft 473 kts 231°
2026-04-26 16:17 40.12814 -75.38038 30196 ft 473 kts 231°
2026-04-26 16:17 40.10669 -75.41015 30869 ft 469 kts 231°
2026-04-26 16:17 40.08500 -75.44022 31619 ft 464 kts 230°
2026-04-26 16:17 40.06333 -75.47025 32191 ft 462 kts 230°
2026-04-26 16:18 40.04180 -75.50005 32713 ft 461 kts 230°
2026-04-26 16:18 39.99902 -75.55918 33822 ft 457 kts 230°
2026-04-26 16:19 39.95616 -75.61832 34965 ft 449 kts 230°
2026-04-26 16:19 39.93513 -75.64729 35354 ft 448 kts 230°
2026-04-26 16:19 39.90054 -75.69654 35918 ft 447 kts 233°
2026-04-26 16:20 39.87536 -75.73740 36426 ft 445 kts 234°
2026-04-26 16:20 39.83861 -75.79700 37366 ft 442 kts 233°
2026-04-26 16:20 39.82013 -75.82677 37722 ft 441 kts 233°
2026-04-26 16:21 39.80171 -75.85633 38011 ft 441 kts 233°
2026-04-26 16:21 39.78317 -75.88601 38294 ft 440 kts 233°
2026-04-26 16:21 39.76501 -75.91501 38528 ft 441 kts 233°
2026-04-26 16:21 39.74641 -75.94467 38780 ft 440 kts 233°
2026-04-26 16:22 39.72799 -75.97399 39021 ft 440 kts 233°
2026-04-26 16:22 39.70974 -76.00301 39232 ft 440 kts 233°
2026-04-26 16:22 39.69117 -76.03247 39414 ft 440 kts 233°
2026-04-26 16:22 39.67268 -76.06179 39622 ft 439 kts 233°
2026-04-26 16:23 39.65455 -76.09050 39801 ft 438 kts 233°
2026-04-26 16:23 39.63650 -76.11907 39893 ft 440 kts 233°
2026-04-26 16:23 39.61809 -76.14817 39996 ft 441 kts 233°
2026-04-26 16:23 39.59984 -76.17699 40085 ft 442 kts 233°
2026-04-26 16:24 39.56210 -76.23528 40097 ft 448 kts 232°
2026-04-26 16:24 39.52364 -76.29433 40140 ft 452 kts 232°
2026-04-26 16:25 39.48525 -76.35318 40148 ft 452 kts 232°
2026-04-26 16:25 39.44609 -76.41132 40155 ft 452 kts 228°
2026-04-26 16:26 39.41051 -76.45725 40160 ft 454 kts 227°
2026-04-26 16:26 39.35955 -76.52309 40152 ft 453 kts 228°
2026-04-26 16:27 39.31599 -76.57961 40153 ft 454 kts 228°
2026-04-26 16:27 39.27298 -76.63545 40152 ft 455 kts 228°
2026-04-26 16:28 39.22906 -76.69247 40159 ft 454 kts 227°
2026-04-26 16:28 39.18494 -76.74969 40159 ft 455 kts 227°
2026-04-26 16:29 39.14106 -76.80650 40163 ft 454 kts 227°
2026-04-26 16:29 39.09786 -76.86234 40160 ft 455 kts 227°
2026-04-26 16:30 39.05491 -76.91776 40158 ft 454 kts 227°
2026-04-26 16:30 39.01210 -76.97290 40153 ft 455 kts 227°
2026-04-26 16:31 38.96901 -77.02837 40140 ft 455 kts 227°
2026-04-26 16:31 38.92536 -77.08452 40131 ft 454 kts 227°
2026-04-26 16:32 38.88953 -77.13054 40132 ft 456 kts 227°
2026-04-26 16:32 38.83908 -77.19521 40133 ft 455 kts 227°
2026-04-26 16:33 38.79487 -77.25176 40138 ft 457 kts 227°
2026-04-26 16:33 38.75053 -77.30837 40144 ft 457 kts 227°
2026-04-26 16:34 38.70602 -77.36334 40136 ft 456 kts 225°
2026-04-26 16:34 38.66045 -77.41558 40147 ft 459 kts 225°
2026-04-26 16:35 38.61490 -77.46785 40134 ft 458 kts 225°
2026-04-26 16:35 38.56939 -77.52013 40138 ft 457 kts 225°
2026-04-26 16:36 38.52329 -77.57308 40139 ft 459 kts 225°
2026-04-26 16:36 38.47758 -77.62551 40141 ft 458 kts 225°
2026-04-26 16:37 38.43295 -77.67665 40152 ft 458 kts 224°
2026-04-26 16:37 38.38743 -77.72873 40148 ft 460 kts 224°
2026-04-26 16:38 38.34227 -77.78030 40142 ft 459 kts 224°
2026-04-26 16:38 38.29686 -77.83207 40132 ft 459 kts 224°
2026-04-26 16:39 38.25159 -77.88361 40136 ft 459 kts 224°
2026-04-26 16:39 38.20612 -77.93527 40139 ft 460 kts 224°
2026-04-26 16:40 38.16100 -77.98644 40145 ft 459 kts 224°
2026-04-26 16:40 38.11573 -78.03770 40143 ft 458 kts 224°
2026-04-26 16:41 38.06988 -78.08953 40130 ft 460 kts 224°
2026-04-26 16:41 38.02481 -78.14038 40130 ft 459 kts 224°
2026-04-26 16:42 37.97748 -78.18778 40128 ft 461 kts 220°
2026-04-26 16:42 37.92935 -78.23371 40117 ft 463 kts 220°
2026-04-26 16:43 37.88123 -78.27957 40108 ft 461 kts 220°
2026-04-26 16:43 37.83400 -78.32454 40106 ft 461 kts 220°
2026-04-26 16:44 37.78664 -78.36958 40102 ft 463 kts 220°
2026-04-26 16:44 37.73929 -78.41454 40103 ft 463 kts 220°
2026-04-26 16:45 37.69195 -78.45940 40095 ft 462 kts 220°
2026-04-26 16:45 37.64476 -78.50407 40099 ft 464 kts 220°
2026-04-26 16:46 37.59722 -78.54899 40096 ft 465 kts 220°
2026-04-26 16:46 37.54933 -78.59415 40091 ft 464 kts 220°
2026-04-26 16:47 37.50188 -78.63884 40089 ft 464 kts 220°
2026-04-26 16:47 37.45373 -78.68412 40086 ft 463 kts 220°
2026-04-26 16:48 37.40611 -78.72882 40090 ft 465 kts 220°
2026-04-26 16:48 37.35829 -78.77363 40089 ft 464 kts 220°
2026-04-26 16:49 37.31095 -78.81793 40090 ft 465 kts 220°
2026-04-26 16:49 37.26295 -78.86277 40087 ft 465 kts 220°
2026-04-26 16:50 37.21528 -78.90723 40089 ft 465 kts 220°
2026-04-26 16:50 37.16727 -78.95194 40085 ft 466 kts 220°
2026-04-26 16:51 37.11954 -78.99630 40081 ft 466 kts 220°
2026-04-26 16:51 37.07159 -79.04082 40080 ft 468 kts 220°
2026-04-26 16:52 37.03157 -79.07790 40079 ft 466 kts 220°
2026-04-26 16:52 36.97570 -79.12961 40071 ft 465 kts 220°
2026-04-26 16:53 36.92770 -79.17396 40069 ft 467 kts 220°
2026-04-26 16:53 36.87937 -79.21853 40067 ft 467 kts 220°
2026-04-26 16:54 36.83138 -79.26272 40063 ft 467 kts 220°
2026-04-26 16:54 36.78288 -79.30731 40067 ft 468 kts 220°
2026-04-26 16:55 36.73500 -79.35126 40063 ft 468 kts 220°
2026-04-26 16:55 36.68668 -79.39554 40068 ft 468 kts 221°
2026-04-26 16:56 36.61432 -79.46172 40058 ft 468 kts 221°
2026-04-26 16:57 36.56599 -79.50584 40062 ft 469 kts 221°
2026-04-26 16:57 36.49344 -79.57192 40063 ft 467 kts 221°
2026-04-26 16:58 36.45329 -79.60844 40058 ft 469 kts 221°
2026-04-26 16:59 36.37074 -79.68335 40063 ft 470 kts 220°
2026-04-26 17:00 36.27141 -79.77322 40059 ft 469 kts 220°
2026-04-26 17:00 36.19725 -79.84013 40054 ft 470 kts 221°
2026-04-26 17:01 36.14732 -79.88509 40052 ft 471 kts 221°
2026-04-26 17:01 36.09728 -79.93007 40045 ft 470 kts 221°
2026-04-26 17:02 36.04558 -79.97400 40034 ft 476 kts 213°
2026-04-26 17:02 35.99124 -80.00352 40032 ft 481 kts 207°
2026-04-26 17:03 35.94588 -80.02591 40032 ft 482 kts 207°
2026-04-26 17:03 35.88739 -80.05473 40023 ft 481 kts 207°
2026-04-26 17:04 35.82937 -80.08331 40021 ft 481 kts 207°
2026-04-26 17:04 35.77256 -80.11127 40019 ft 481 kts 207°
2026-04-26 17:05 35.71540 -80.13936 40022 ft 481 kts 207°
2026-04-26 17:05 35.65793 -80.16756 40021 ft 483 kts 207°
2026-04-26 17:06 35.60106 -80.19543 40017 ft 482 kts 207°
2026-04-26 17:06 35.54384 -80.22342 40024 ft 481 kts 207°
2026-04-26 17:07 35.48654 -80.25142 40025 ft 483 kts 207°
2026-04-26 17:07 35.42955 -80.27922 40028 ft 482 kts 207°
2026-04-26 17:08 35.37203 -80.30723 40020 ft 482 kts 207°
2026-04-26 17:08 35.31490 -80.33502 40028 ft 483 kts 207°
2026-04-26 17:09 35.26698 -80.35828 40014 ft 481 kts 207°
2026-04-26 17:09 35.19877 -80.39136 40009 ft 482 kts 208°
2026-04-26 17:10 35.14025 -80.41969 40006 ft 482 kts 208°
2026-04-26 17:10 35.08089 -80.44838 40004 ft 482 kts 208°
2026-04-26 17:11 35.02168 -80.47695 39995 ft 481 kts 208°
2026-04-26 17:11 34.96349 -80.50499 40004 ft 482 kts 208°
2026-04-26 17:12 34.87516 -80.54746 39991 ft 480 kts 208°
2026-04-26 17:13 34.78678 -80.58987 39984 ft 482 kts 208°
2026-04-26 17:14 34.69960 -80.63160 39976 ft 482 kts 208°
2026-04-26 17:14 34.64466 -80.66347 39981 ft 472 kts 219°
2026-04-26 17:14 34.62072 -80.68485 39978 ft 467 kts 226°
2026-04-26 17:15 34.55483 -80.75603 39983 ft 463 kts 228°
2026-04-26 17:16 34.51076 -80.80387 39986 ft 463 kts 228°
2026-04-26 17:16 34.46643 -80.85188 39978 ft 464 kts 228°
2026-04-26 17:17 34.42226 -80.89961 39967 ft 464 kts 228°
2026-04-26 17:17 34.37818 -80.94715 39976 ft 464 kts 228°
2026-04-26 17:18 34.33372 -80.99411 39977 ft 467 kts 224°
2026-04-26 17:18 34.28062 -81.03011 39987 ft 484 kts 207°
2026-04-26 17:19 34.19021 -81.06576 39987 ft 486 kts 204°
2026-04-26 17:19 34.12824 -81.08954 39971 ft 489 kts 204°
2026-04-26 17:20 34.07623 -81.10946 39977 ft 488 kts 204°
2026-04-26 17:20 34.00416 -81.13705 39969 ft 487 kts 204°
2026-04-26 17:21 33.94182 -81.16090 39965 ft 488 kts 204°
2026-04-26 17:21 33.88400 -81.18299 39955 ft 489 kts 205°
2026-04-26 17:22 33.84581 -81.19756 39940 ft 488 kts 205°
2026-04-26 17:22 33.78608 -81.22033 39943 ft 490 kts 205°
2026-04-26 17:23 33.72620 -81.24313 39941 ft 492 kts 205°
2026-04-26 17:23 33.66584 -81.26606 39937 ft 491 kts 205°
2026-04-26 17:24 33.60533 -81.28902 39932 ft 491 kts 205°
2026-04-26 17:24 33.54525 -81.31178 39926 ft 491 kts 205°
2026-04-26 17:25 33.48428 -81.33485 39927 ft 492 kts 205°
2026-04-26 17:25 33.42369 -81.35775 39930 ft 493 kts 205°
2026-04-26 17:26 33.36309 -81.38062 39932 ft 492 kts 205°
2026-04-26 17:26 33.30266 -81.40337 39947 ft 492 kts 205°
2026-04-26 17:27 33.24247 -81.42722 39946 ft 491 kts 208°
2026-04-26 17:27 33.18297 -81.45303 39941 ft 490 kts 208°
2026-04-26 17:28 33.12346 -81.47873 39940 ft 489 kts 208°
2026-04-26 17:28 33.06392 -81.50432 39936 ft 492 kts 208°
2026-04-26 17:29 33.01385 -81.52575 39931 ft 491 kts 208°
2026-04-26 17:29 32.94533 -81.55502 39925 ft 489 kts 208°
2026-04-26 17:30 32.88503 -81.58110 39915 ft 492 kts 210°
2026-04-26 17:30 32.82562 -81.60812 39916 ft 487 kts 210°
2026-04-26 17:31 32.76673 -81.63489 39917 ft 491 kts 210°
2026-04-26 17:31 32.70690 -81.66197 39937 ft 491 kts 209°
2026-04-26 17:32 32.64766 -81.68873 39936 ft 491 kts 209°
2026-04-26 17:32 32.58783 -81.71568 39938 ft 491 kts 209°
2026-04-26 17:33 32.52837 -81.74244 39934 ft 492 kts 209°
2026-04-26 17:34 32.43852 -81.78278 39933 ft 493 kts 209°
2026-04-26 17:34 32.37870 -81.80959 39933 ft 493 kts 209°
2026-04-26 17:35 32.31932 -81.83616 39933 ft 493 kts 209°
2026-04-26 17:35 32.26108 -81.86218 39936 ft 492 kts 209°
2026-04-26 17:36 32.20034 -81.88928 39933 ft 493 kts 209°
2026-04-26 17:36 32.14144 -81.91554 39931 ft 496 kts 209°
2026-04-26 17:37 32.08014 -81.93917 39932 ft 499 kts 205°
2026-04-26 17:37 32.01882 -81.96174 39926 ft 501 kts 205°
2026-04-26 17:38 31.92695 -81.99573 39928 ft 498 kts 206°
2026-04-26 17:38 31.86633 -82.01822 39917 ft 497 kts 206°
2026-04-26 17:39 31.80512 -82.04053 39918 ft 499 kts 205°
2026-04-26 17:39 31.74397 -82.06267 39904 ft 500 kts 205°
2026-04-26 17:40 31.69318 -82.08105 39908 ft 496 kts 205°
2026-04-26 17:40 31.62294 -82.10647 39920 ft 497 kts 205°
2026-04-26 17:41 31.56186 -82.12856 39912 ft 496 kts 205°
2026-04-26 17:41 31.50048 -82.15071 39915 ft 496 kts 205°
2026-04-26 17:42 31.43947 -82.17272 39911 ft 497 kts 205°
2026-04-26 17:42 31.37776 -82.19495 39918 ft 495 kts 205°
2026-04-26 17:43 31.31668 -82.21690 39910 ft 493 kts 205°
2026-04-26 17:43 31.25522 -82.23900 39907 ft 496 kts 205°
2026-04-26 17:44 31.19162 -82.26181 39913 ft 494 kts 205°
2026-04-26 17:44 31.12834 -82.28449 39908 ft 495 kts 205°
2026-04-26 17:45 31.06562 -82.30692 39907 ft 495 kts 205°
2026-04-26 17:45 31.00444 -82.32877 39906 ft 491 kts 205°
2026-04-26 17:46 30.94310 -82.35067 39903 ft 496 kts 205°
2026-04-26 17:46 30.88151 -82.37260 39887 ft 492 kts 205°
2026-04-26 17:47 30.83038 -82.39081 39890 ft 495 kts 205°
2026-04-26 17:47 30.75901 -82.41618 39888 ft 495 kts 205°
2026-04-26 17:48 30.69892 -82.43876 39890 ft 487 kts 211°
2026-04-26 17:48 30.64213 -82.46903 39891 ft 485 kts 213°
2026-04-26 17:49 30.58577 -82.49974 39891 ft 483 kts 213°
2026-04-26 17:49 30.52937 -82.53042 39891 ft 482 kts 213°
2026-04-26 17:50 30.47274 -82.56117 39893 ft 485 kts 213°
2026-04-26 17:50 30.41602 -82.59189 39897 ft 484 kts 213°
2026-04-26 17:51 30.35889 -82.62279 39903 ft 484 kts 213°
2026-04-26 17:51 30.30137 -82.65386 39910 ft 485 kts 212°
2026-04-26 17:52 30.24410 -82.68478 39923 ft 488 kts 212°
2026-04-26 17:52 30.18668 -82.71569 39926 ft 486 kts 212°
2026-04-26 17:53 30.12945 -82.74648 39922 ft 485 kts 212°
2026-04-26 17:54 30.04367 -82.79257 39911 ft 489 kts 212°
2026-04-26 17:54 29.98623 -82.82336 39904 ft 489 kts 212°
2026-04-26 17:55 29.92941 -82.85377 39911 ft 486 kts 212°
2026-04-26 17:55 29.87567 -82.89018 39917 ft 476 kts 223°
2026-04-26 17:56 29.82446 -82.93205 39898 ft 475 kts 223°
2026-04-26 17:57 29.72405 -83.01406 39916 ft 475 kts 223°
2026-04-26 17:57 29.67378 -83.05504 39928 ft 481 kts 223°
2026-04-26 17:58 29.57325 -83.13672 39925 ft 476 kts 223°
2026-04-26 17:59 29.49847 -83.19738 39921 ft 481 kts 222°
2026-04-26 17:59 29.44833 -83.23796 39933 ft 481 kts 223°
2026-04-26 18:00 29.39810 -83.27856 39921 ft 478 kts 223°
2026-04-26 18:00 29.34831 -83.31879 39934 ft 483 kts 222°
2026-04-26 18:01 29.30803 -83.35128 39942 ft 482 kts 223°
2026-04-26 18:01 29.25876 -83.39097 39941 ft 480 kts 223°
2026-04-26 18:02 29.21673 -83.42481 39940 ft 482 kts 222°
2026-04-26 18:02 29.15841 -83.47169 39943 ft 483 kts 223°
2026-04-26 18:03 29.10789 -83.51223 39954 ft 480 kts 223°
2026-04-26 18:03 29.05769 -83.55250 39955 ft 480 kts 223°
2026-04-26 18:04 29.00755 -83.59266 39962 ft 483 kts 222°
2026-04-26 18:05 28.93169 -83.65331 39968 ft 479 kts 222°
2026-04-26 18:05 28.88235 -83.69274 39961 ft 485 kts 222°
2026-04-26 18:06 28.83240 -83.73257 39962 ft 485 kts 221°
2026-04-26 18:06 28.78312 -83.77182 39965 ft 484 kts 222°
2026-04-26 18:07 28.73355 -83.81124 39964 ft 483 kts 222°
2026-04-26 18:07 28.68382 -83.85079 39960 ft 488 kts 221°
2026-04-26 18:08 28.63395 -83.89037 39960 ft 485 kts 222°
2026-04-26 18:08 28.58469 -83.92941 39963 ft 484 kts 222°
2026-04-26 18:09 28.53515 -83.96866 39964 ft 487 kts 222°
2026-04-26 18:09 28.48518 -84.00818 39966 ft 485 kts 222°
2026-04-26 18:10 28.43426 -84.04840 39960 ft 484 kts 222°
2026-04-26 18:10 28.38408 -84.08800 39961 ft 484 kts 222°
2026-04-26 18:11 28.33390 -84.12756 39957 ft 484 kts 222°
2026-04-26 18:11 28.28439 -84.16654 39958 ft 486 kts 222°
2026-04-26 18:12 28.23434 -84.20590 39961 ft 486 kts 222°
2026-04-26 18:12 28.18439 -84.24513 39961 ft 485 kts 222°
2026-04-26 18:13 28.13474 -84.28408 39968 ft 487 kts 222°
2026-04-26 18:13 28.08471 -84.32328 39974 ft 485 kts 222°
2026-04-26 18:14 28.03506 -84.36214 39984 ft 484 kts 222°
2026-04-26 18:14 27.98469 -84.40152 39988 ft 485 kts 222°
2026-04-26 18:15 27.93500 -84.44033 39990 ft 486 kts 222°
2026-04-26 18:15 27.88455 -84.47969 39967 ft 487 kts 222°
2026-04-26 18:16 27.83468 -84.51853 39969 ft 483 kts 222°
2026-04-26 18:16 27.75980 -84.57681 39965 ft 487 kts 222°
2026-04-26 18:17 27.70987 -84.61558 39970 ft 484 kts 222°
2026-04-26 18:17 27.66023 -84.65412 39968 ft 486 kts 221°
2026-04-26 18:18 27.61009 -84.69299 39974 ft 487 kts 222°
2026-04-26 18:18 27.55989 -84.73186 39971 ft 486 kts 222°
2026-04-26 18:19 27.51001 -84.77002 39959 ft 485 kts 218°
2026-04-26 18:19 27.45432 -84.79910 39972 ft 500 kts 207°
2026-04-26 18:20 27.39531 -84.82366 39965 ft 502 kts 207°
2026-04-26 18:20 27.34624 -84.84392 39966 ft 500 kts 207°
2026-04-26 18:21 27.27819 -84.87198 39967 ft 501 kts 207°
2026-04-26 18:21 27.21942 -84.89618 39970 ft 504 kts 207°
2026-04-26 18:22 27.15999 -84.92059 39969 ft 500 kts 207°
2026-04-26 18:22 27.10139 -84.94466 39973 ft 503 kts 207°
2026-04-26 18:23 27.04187 -84.96905 39971 ft 502 kts 207°
2026-04-26 18:23 26.98309 -84.99313 39968 ft 499 kts 207°
2026-04-26 18:24 26.92392 -85.01733 39974 ft 501 kts 207°
2026-04-26 18:24 26.86474 -85.04153 39959 ft 502 kts 207°
2026-04-26 18:25 26.80594 -85.06553 39958 ft 503 kts 207°
2026-04-26 18:25 26.74593 -85.09000 39958 ft 504 kts 207°
2026-04-26 18:26 26.68602 -85.11440 39958 ft 503 kts 207°
2026-04-26 18:26 26.62621 -85.13872 39960 ft 503 kts 207°
2026-04-26 18:27 26.56628 -85.16308 39956 ft 504 kts 207°
2026-04-26 18:27 26.50627 -85.18743 39962 ft 504 kts 207°
2026-04-26 18:28 26.44640 -85.21171 39968 ft 504 kts 207°
2026-04-26 18:28 26.38519 -85.23433 39955 ft 510 kts 199°
2026-04-26 18:29 26.32013 -85.24412 39965 ft 522 kts 192°
2026-04-26 18:29 26.25441 -85.25093 39969 ft 521 kts 192°
2026-04-26 18:30 26.18810 -85.25776 39967 ft 521 kts 192°
2026-04-26 18:30 26.12240 -85.26455 39976 ft 523 kts 192°
2026-04-26 18:31 26.05595 -85.27141 39972 ft 521 kts 192°
2026-04-26 18:31 25.98997 -85.27821 39966 ft 520 kts 192°
2026-04-26 18:32 25.92406 -85.28503 39972 ft 521 kts 192°
2026-04-26 18:32 25.85769 -85.29188 39952 ft 523 kts 191°
2026-04-26 18:33 25.79197 -85.29865 39958 ft 521 kts 192°
2026-04-26 18:33 25.72576 -85.30547 39954 ft 521 kts 191°
2026-04-26 18:34 25.65986 -85.31225 39956 ft 520 kts 192°
2026-04-26 18:34 25.59368 -85.31905 39960 ft 520 kts 192°
2026-04-26 18:35 25.52828 -85.32576 39960 ft 519 kts 191°
2026-04-26 18:35 25.46213 -85.33254 39961 ft 520 kts 192°
2026-04-26 18:36 25.39616 -85.33933 39961 ft 518 kts 193°
2026-04-26 18:36 25.33300 -85.35535 39961 ft 504 kts 208°
2026-04-26 18:37 25.27526 -85.38663 39964 ft 493 kts 217°
2026-04-26 18:37 25.22106 -85.42088 39964 ft 493 kts 217°
2026-04-26 18:38 25.16640 -85.45543 39968 ft 492 kts 217°
2026-04-26 18:38 25.10989 -85.48557 39960 ft 503 kts 206°
2026-04-26 18:39 25.04415 -85.49953 39962 ft 520 kts 188°
2026-04-26 18:39 24.97799 -85.50019 39962 ft 523 kts 186°
2026-04-26 18:40 24.91238 -85.50002 39963 ft 521 kts 186°
2026-04-26 18:40 24.84649 -85.49993 39950 ft 521 kts 186°
2026-04-26 18:41 24.78076 -85.49989 39947 ft 521 kts 186°
2026-04-26 18:41 24.71492 -85.49987 39951 ft 521 kts 186°
2026-04-26 18:42 24.64875 -85.49987 39954 ft 522 kts 186°
2026-04-26 18:42 24.58218 -85.49986 39952 ft 519 kts 186°
2026-04-26 18:43 24.51656 -85.49988 39945 ft 520 kts 186°
2026-04-26 18:43 24.45055 -85.49989 39947 ft 519 kts 186°
2026-04-26 18:44 24.38427 -85.49990 39942 ft 518 kts 186°
2026-04-26 18:44 24.31693 -85.49992 39947 ft 518 kts 186°
2026-04-26 18:45 24.25070 -85.49994 39948 ft 519 kts 186°
2026-04-26 18:45 24.18505 -85.49995 39934 ft 518 kts 186°
2026-04-26 18:46 24.11883 -85.49997 39953 ft 518 kts 186°
2026-04-26 18:46 24.05249 -85.49998 39942 ft 516 kts 186°
2026-04-26 18:47 23.98684 -85.50008 39939 ft 515 kts 187°
2026-04-26 18:47 23.92076 -85.50320 39948 ft 515 kts 188°
2026-04-26 18:48 23.85519 -85.50663 39936 ft 513 kts 188°
2026-04-26 18:48 23.78979 -85.50995 39934 ft 514 kts 188°
2026-04-26 18:49 23.72406 -85.51321 39935 ft 512 kts 188°
2026-04-26 18:49 23.65867 -85.51643 39930 ft 513 kts 188°
2026-04-26 18:50 23.59314 -85.51962 39927 ft 513 kts 188°
2026-04-26 18:50 23.52827 -85.52275 39928 ft 512 kts 188°
2026-04-26 18:51 23.46298 -85.52590 39927 ft 512 kts 188°
2026-04-26 18:51 23.39818 -85.52902 39927 ft 511 kts 188°
2026-04-26 18:52 23.34378 -85.53163 39926 ft 510 kts 188°
2026-04-26 18:52 23.26829 -85.53526 39926 ft 512 kts 188°
2026-04-26 18:53 23.20310 -85.53838 39926 ft 510 kts 188°
2026-04-26 18:53 23.13609 -85.54158 39926 ft 508 kts 188°
2026-04-26 18:54 23.06994 -85.54475 39923 ft 509 kts 188°
2026-04-26 18:54 23.00493 -85.54785 39918 ft 510 kts 188°
2026-04-26 18:55 22.93941 -85.55098 39913 ft 509 kts 188°
2026-04-26 18:55 22.87414 -85.55409 39895 ft 509 kts 188°
2026-04-26 18:56 22.80843 -85.55721 39589 ft 504 kts 188°
2026-04-26 18:56 22.77632 -85.55876 38617 ft 509 kts 188°
2026-04-26 18:56 22.74334 -85.56037 37662 ft 513 kts 188°
2026-04-26 18:57 22.71061 -85.56195 36942 ft 513 kts 187°
2026-04-26 18:57 22.68995 -85.56294 36514 ft 513 kts 187°
2026-04-26 18:57 22.64801 -85.56495 35611 ft 512 kts 187°
2026-04-26 18:57 22.61613 -85.56648 34904 ft 512 kts 187°
2026-04-26 18:58 22.59427 -85.56753 34410 ft 512 kts 187°
2026-04-26 18:58 22.55236 -85.56953 33731 ft 507 kts 187°
2026-04-26 18:58 22.52171 -85.57098 33379 ft 500 kts 187°
2026-04-26 18:58 22.49083 -85.57246 32966 ft 494 kts 187°
2026-04-26 18:59 22.45928 -85.57397 32528 ft 490 kts 187°
2026-04-26 18:59 22.42784 -85.57548 32065 ft 486 kts 187°
2026-04-26 18:59 22.39683 -85.57697 31595 ft 482 kts 187°
2026-04-26 18:59 22.36657 -85.57843 31133 ft 479 kts 187°
2026-04-26 19:00 22.33593 -85.58000 30661 ft 475 kts 188°
2026-04-26 19:00 22.30662 -85.58450 30207 ft 466 kts 197°
2026-04-26 19:00 22.27853 -85.59333 29742 ft 459 kts 205°
2026-04-26 19:00 22.25199 -85.60630 29286 ft 460 kts 213°
2026-04-26 19:01 22.22762 -85.62302 28821 ft 466 kts 221°
2026-04-26 19:01 22.20493 -85.64401 28316 ft 462 kts 230°
2026-04-26 19:01 22.18601 -85.66710 27851 ft 454 kts 236°
2026-04-26 19:01 22.16835 -85.69141 27395 ft 449 kts 237°
2026-04-26 19:02 22.15080 -85.71595 26922 ft 445 kts 237°
2026-04-26 19:02 22.13374 -85.73993 26459 ft 442 kts 237°
2026-04-26 19:02 22.11696 -85.76360 26001 ft 439 kts 237°
2026-04-26 19:02 22.10561 -85.77964 25689 ft 437 kts 237°
2026-04-26 19:03 22.08344 -85.81103 25081 ft 433 kts 238°
2026-04-26 19:03 22.06602 -85.83572 24599 ft 430 kts 238°
2026-04-26 19:03 22.04977 -85.85877 24143 ft 427 kts 238°
2026-04-26 19:03 22.03356 -85.88180 23686 ft 425 kts 238°
2026-04-26 19:04 22.01714 -85.90511 23220 ft 423 kts 238°
2026-04-26 19:04 22.00100 -85.92802 22751 ft 421 kts 238°
2026-04-26 19:04 21.98493 -85.95084 22291 ft 419 kts 238°
2026-04-26 19:04 21.96859 -85.97354 21851 ft 418 kts 233°
2026-04-26 19:05 21.93044 -86.01221 21481 ft 406 kts 226°
2026-04-26 19:05 21.91104 -86.03055 21238 ft 404 kts 225°
2026-04-26 19:05 21.89152 -86.04898 20978 ft 403 kts 225°
2026-04-26 19:06 21.87256 -86.06687 20723 ft 401 kts 225°
2026-04-26 19:06 21.85350 -86.08483 20473 ft 399 kts 225°
2026-04-26 19:06 21.83432 -86.10290 20224 ft 397 kts 225°
2026-04-26 19:06 21.81531 -86.12080 19979 ft 396 kts 225°
2026-04-26 19:07 21.79658 -86.13842 19734 ft 394 kts 225°
2026-04-26 19:07 21.77776 -86.15613 19489 ft 393 kts 225°
2026-04-26 19:07 21.75866 -86.17408 19246 ft 391 kts 225°
2026-04-26 19:07 21.73966 -86.19193 18995 ft 387 kts 224°
2026-04-26 19:08 21.72107 -86.20938 18761 ft 379 kts 224°
2026-04-26 19:08 21.70382 -86.22701 18556 ft 368 kts 233°
2026-04-26 19:08 21.69103 -86.24709 18346 ft 355 kts 245°
2026-04-26 19:08 21.68055 -86.26853 17992 ft 356 kts 247°
2026-04-26 19:09 21.66946 -86.29257 17117 ft 384 kts 247°
2026-04-26 19:09 21.65770 -86.31815 16403 ft 389 kts 247°
2026-04-26 19:09 21.64587 -86.34386 15847 ft 387 kts 247°
2026-04-26 19:09 21.63439 -86.36877 15337 ft 385 kts 247°
2026-04-26 19:10 21.62326 -86.39294 14829 ft 382 kts 247°
2026-04-26 19:10 21.61253 -86.41620 14348 ft 376 kts 247°
2026-04-26 19:10 21.60196 -86.43910 13877 ft 371 kts 247°
2026-04-26 19:10 21.59110 -86.46262 13383 ft 367 kts 248°
2026-04-26 19:11 21.58030 -86.48600 12862 ft 363 kts 247°
2026-04-26 19:11 21.56968 -86.50901 12366 ft 358 kts 247°
2026-04-26 19:11 21.55931 -86.53143 11888 ft 354 kts 246°
2026-04-26 19:11 21.54896 -86.55382 11403 ft 350 kts 246°
2026-04-26 19:12 21.53886 -86.57566 10926 ft 346 kts 246°
2026-04-26 19:12 21.52875 -86.59753 10482 ft 341 kts 246°
2026-04-26 19:12 21.51900 -86.61859 10370 ft 326 kts 246°
2026-04-26 19:12 21.50978 -86.63847 10291 ft 311 kts 246°
2026-04-26 19:13 21.50103 -86.65733 10189 ft 299 kts 245°
2026-04-26 19:13 21.49254 -86.67562 10087 ft 288 kts 246°
2026-04-26 19:13 21.48441 -86.69316 9974 ft 278 kts 246°
2026-04-26 19:13 21.47654 -86.71013 9724 ft 275 kts 246°
2026-04-26 19:14 21.46857 -86.72734 9385 ft 275 kts 245°
2026-04-26 19:14 21.46085 -86.74399 9076 ft 274 kts 245°
2026-04-26 19:14 21.45298 -86.76097 8766 ft 273 kts 245°
2026-04-26 19:14 21.44776 -86.77222 8572 ft 272 kts 245°
2026-04-26 19:15 21.43726 -86.79485 8172 ft 270 kts 245°
2026-04-26 19:15 21.42934 -86.81191 7888 ft 268 kts 245°
2026-04-26 19:15 21.42141 -86.82900 7582 ft 267 kts 244°
2026-04-26 19:15 21.41337 -86.84632 7280 ft 265 kts 244°
2026-04-26 19:16 21.40519 -86.86391 6977 ft 264 kts 244°
2026-04-26 19:16 21.39704 -86.88147 6668 ft 263 kts 244°
2026-04-26 19:16 21.38914 -86.89844 6376 ft 261 kts 244°
2026-04-26 19:16 21.38105 -86.91586 6082 ft 260 kts 244°
2026-04-26 19:17 21.37307 -86.93302 5790 ft 259 kts 243°
2026-04-26 19:17 21.36493 -86.95051 5480 ft 260 kts 243°
2026-04-26 19:17 21.35695 -86.96766 5183 ft 261 kts 243°
2026-04-26 19:17 21.34882 -86.98513 4975 ft 257 kts 243°
2026-04-26 19:18 21.34080 -87.00234 4638 ft 260 kts 243°
2026-04-26 19:18 21.33270 -87.01972 4301 ft 262 kts 242°
2026-04-26 19:18 21.32443 -87.03746 3985 ft 262 kts 242°
2026-04-26 19:18 21.31631 -87.05487 3680 ft 259 kts 242°
2026-04-26 19:19 21.30825 -87.07216 3420 ft 246 kts 242°
2026-04-26 19:19 21.30068 -87.08838 3137 ft 228 kts 240°
2026-04-26 19:19 21.29125 -87.10104 2959 ft 205 kts 217°
2026-04-26 19:19 21.28030 -87.10981 2951 ft 194 kts 213°
2026-04-26 19:20 21.26909 -87.11817 2930 ft 191 kts 212°
2026-04-26 19:20 21.26156 -87.12357 2874 ft 191 kts 211°
2026-04-26 19:20 21.24642 -87.13431 2716 ft 192 kts 211°
2026-04-26 19:20 21.23481 -87.14173 2576 ft 188 kts 200°
2026-04-26 19:21 21.22169 -87.14448 2451 ft 186 kts 178°
2026-04-26 19:21 21.20928 -87.14156 2330 ft 182 kts 150°
2026-04-26 19:21 21.19952 -87.13289 2259 ft 178 kts 133°
2026-04-26 19:21 21.19145 -87.12231 2286 ft 181 kts 126°
2026-04-26 19:22 21.18415 -87.11127 2289 ft 181 kts 124°
2026-04-26 19:22 21.17717 -87.09977 2292 ft 180 kts 120°
2026-04-26 19:22 21.17118 -87.08787 2291 ft 180 kts 118°
2026-04-26 19:22 21.16570 -87.07568 2290 ft 181 kts 115°
2026-04-26 19:23 21.16046 -87.06348 2288 ft 181 kts 115°
2026-04-26 19:23 21.15517 -87.05117 2294 ft 182 kts 115°
2026-04-26 19:23 21.14919 -87.03889 2287 ft 181 kts 120°
2026-04-26 19:23 21.14290 -87.02723 2290 ft 180 kts 120°
2026-04-26 19:24 21.13646 -87.01548 2269 ft 176 kts 121°
2026-04-26 19:24 21.13047 -87.00433 2141 ft 159 kts 120°
2026-04-26 19:24 21.11883 -86.98291 2014 ft 173 kts 122°
2026-04-26 19:25 21.11215 -86.97246 1933 ft 168 kts 125°
2026-04-26 19:25 21.10754 -86.96559 1790 ft 169 kts 126°
2026-04-26 19:25 21.09885 -86.95193 1526 ft 161 kts 122°
2026-04-26 19:25 21.09300 -86.94217 1267 ft 152 kts 123°
2026-04-26 19:26 21.08708 -86.93266 1031 ft 150 kts 123°
2026-04-26 19:26 21.08147 -86.92342 880 ft 145 kts 124°
2026-04-26 19:26 21.07582 -86.91466 738 ft 140 kts 125°
2026-04-26 19:26 21.07054 -86.90628 630 ft 127 kts 125°
2026-04-26 19:27 21.06562 -86.89866 448 ft 121 kts 126°
2026-04-26 19:27 21.06085 -86.89109 317 ft 122 kts 126°
2026-04-26 19:27 21.05613 -86.88361 144 ft 120 kts 125°
2026-04-26 19:27 21.05174 -86.87666 53 ft 100 kts 123°
2026-04-26 19:28 21.04852 -86.87151 46 ft 64 kts 123°
2026-04-26 19:28 21.04679 -86.86874 46 ft 42 kts 124°
2026-04-26 19:28 21.04522 -86.86628 45 ft 36 kts 125°
2026-04-26 19:28 21.04366 -86.86440 44 ft 32 kts 144°
2026-04-26 19:29 21.04242 -86.86363 46 ft 9 kts 153°
2026-04-26 19:29 21.04182 -86.86331 46 ft 10 kts 153°
2026-04-26 19:29 21.04122 -86.86292 47 ft 10 kts 137°
2026-04-26 19:29 21.04071 -86.86239 48 ft 10 kts 152°
2026-04-26 19:30 21.03997 -86.86249 48 ft 12 kts 208°
2026-04-26 19:30 21.03930 -86.86295 47 ft 11 kts 213°
2026-04-26 19:30 21.03867 -86.86339 49 ft 8 kts 213°
2026-04-26 19:30 21.03834 -86.86362 49 ft 9 kts 213°
2026-04-26 19:31 21.03758 -86.86415 48 ft 7 kts 213°
2026-04-26 19:31 21.03719 -86.86443 48 ft 6 kts 213°
2026-04-26 19:31 21.03685 -86.86467 49 ft 0 kts 213°
2026-04-26 19:31 21.03682 -86.86469 49 ft 1 kts 213°
2026-04-26 19:32 21.03673 -86.86475 49 ft 1 kts 213°
2026-04-26 19:32 21.03661 -86.86485 49 ft 2 kts 213°
2026-04-26 19:32 21.03641 -86.86498 49 ft 4 kts 213°
2026-04-26 19:32 21.03620 -86.86513 49 ft 3 kts 214°
2026-04-26 19:33 21.03591 -86.86534 49 ft 7 kts 215°
2026-04-26 19:33 21.03567 -86.86593 47 ft 10 kts 276°
2026-04-26 19:33 21.03574 -86.86675 46 ft 13 kts 233°
2026-04-26 19:33 21.03509 -86.86731 45 ft 12 kts 211°
2026-04-26 19:34 21.03428 -86.86790 42 ft 15 kts 225°
2026-04-26 19:34 21.03423 -86.86869 41 ft 8 kts 323°
2026-04-26 19:34 21.03476 -86.86867 42 ft 7 kts
2026-04-26 19:34 21.03511 -86.86861 43 ft 2 kts
2026-04-26 19:35 21.03523 -86.86859 43 ft 0 kts